Tracking 27380 objects as of 5-Jun-2023
HD Live streaming from Space Station
objects crossing your sky now

DELTA 1 DEB

Track DELTA 1 DEB now!
10-day predictions


NORAD ID: 7174
Int'l Code: 1973-086EL
Perigee: 1,414.3 km
Apogee: 1,884.5 km
Inclination: 102.1 °
Period: 119.1 minutes
Semi major axis: 8020 km
RCS: 0.017 m2 (small)
Launch date: November 6, 1973
Source: United States (US)
Launch site: AIR FORCE WESTERN TEST RANGE (AFWTR)

Note: This is SATELLITE DEBRIS
Your satellite tracking list
Your tracking list is empty




NASA's NSSDC Master Catalog

Two Line Element Set (TLE):
1  7174U 73086EL  23156.13543007  .00000565  00000-0  59451-2 0  9995
2  7174 102.1172 259.8169 0293171 292.9416 186.8080 12.08675749197682
Source of the keplerian elements: AFSPC